Weather History for Monroe, MI

Change the Weather History Date:

Wednesday, November 2, 2011

  Actual Average Record
Temperature  
Mean Temperature 55 °F -  
Max Temperature 68 °F 59 °F 79 °F (1933)
Min Temperature 42 °F 41 °F 25 °F (1980)
Degree Days  
Heating Degree Days 10    
Growing Degree Days 5 (Base 50)    
Moisture  
Dew Point 36 °F    
Average Humidity 51    
Maximum Humidity 76    
Minimum Humidity 28    
Precipitation  
Precipitation 0.00 in - - ()
Sea Level Pressure  
Sea Level Pressure 30.12 in    
Wind  
Wind Speed 7 mph (SSW)    
Max Wind Speed 15 mph    
Max Gust Speed 21 mph    
Visibility 10 miles    
Events      
Averages and records for this station are not official NWS values.
T = Trace of Precipitation, MM = Missing Value Source: NWS Daily Summary

Daily Weather History Graph

Daily Weather History Graph

Search for Another Location

Airport:

Trip Planner

Search our weather history database for the weather conditions in past years. The results will help you decide how hot, cold, wet, or windy it might be!

Date:

Astronomy

Nov. 02, 2011 Rise Set
Actual Time 8:07 AM EDT 6:26 PM EDT
Civil Twilight 7:38 AM EDT 6:55 PM EDT
Nautical Twilight 7:05 AM EDT 7:28 PM EDT
Astronomical Twilight 6:32 AM EDT 8:01 PM EDT
Moon 2:26 PM EDT (11/2) 12:08 AM EDT (11/2)
Length of Visible Light 11h 17m
Length of Day
10h 19m
Waxing Crescent, 50% of the Moon is Illuminated
Nov 2
Waxing Crescent
Nov 2
First Quarter
Nov 10
Full
Nov 18
Last Quarter
Nov 25
New

Hourly Weather History & Observations

Time (EDT) Temp. Windchill Dew Point Humidity Pressure Visibility Wind Dir Wind Speed Gust Speed Precip Events Conditions
12:13 AM 46.4 °F 44.3 °F 35.6 °F 66% 30.17 in 10.0 mi South 4.6 mph - N/A   Clear
12:33 AM 46.4 °F 44.3 °F 35.6 °F 66% 30.17 in 10.0 mi South 4.6 mph - N/A   Clear
12:53 AM 46.4 °F 43.5 °F 35.6 °F 66% 30.16 in 10.0 mi South 5.8 mph - N/A   Clear
1:13 AM 46.4 °F 43.5 °F 35.6 °F 66% 30.16 in 10.0 mi South 5.8 mph - N/A   Clear
1:33 AM 46.4 °F 43.5 °F 35.6 °F 66% 30.17 in 10.0 mi SSW 5.8 mph - N/A   Clear
1:53 AM 46.4 °F 43.5 °F 35.6 °F 66% 30.17 in 10.0 mi South 5.8 mph - N/A   Clear
2:14 AM 46.4 °F 44.3 °F 35.6 °F 66% 30.17 in 10.0 mi South 4.6 mph - N/A   Clear
2:34 AM 46.4 °F 43.5 °F 35.6 °F 66% 30.17 in 10.0 mi South 5.8 mph - N/A   Clear
2:54 AM 44.6 °F 42.2 °F 35.6 °F 71% 30.17 in 10.0 mi South 4.6 mph - N/A   Clear
3:14 AM 44.6 °F 43.1 °F 35.6 °F 71% 30.17 in 10.0 mi South 3.5 mph - N/A   Clear
3:34 AM 44.6 °F 43.1 °F 35.6 °F 71% 30.17 in 10.0 mi South 3.5 mph - N/A   Clear
4:14 AM 44.6 °F 41.4 °F 35.6 °F 71% 30.18 in 10.0 mi South 5.8 mph - N/A   Clear
4:35 AM 44.6 °F 42.2 °F 35.6 °F 71% 30.18 in 10.0 mi South 4.6 mph - N/A   Clear
4:55 AM 42.8 °F 40.1 °F 35.6 °F 76% 30.19 in 10.0 mi South 4.6 mph - N/A   Clear
6:50 AM 42.8 °F 40.1 °F 35.6 °F 76% 30.20 in 10.0 mi South 4.6 mph - N/A   Clear
7:31 AM 42.8 °F 39.3 °F 35.6 °F 76% 30.20 in 10.0 mi South 5.8 mph - N/A   Clear
7:51 AM 44.6 °F 40.7 °F 37.4 °F 76% 30.19 in 10.0 mi South 6.9 mph - N/A   Clear
8:11 AM 44.6 °F 41.4 °F 37.4 °F 76% 30.19 in 10.0 mi South 5.8 mph - N/A   Clear
8:31 AM 44.6 °F 41.4 °F 37.4 °F 76% 30.19 in 10.0 mi South 5.8 mph - N/A   Clear
8:51 AM 46.4 °F 43.5 °F 37.4 °F 71% 30.19 in 10.0 mi SSW 5.8 mph - N/A   Clear
9:11 AM 48.2 °F - 37.4 °F 66% 30.19 in 10.0 mi SSW 5.8 mph - N/A   Clear
9:31 AM 51.8 °F - 37.4 °F 58% 30.20 in 10.0 mi SSW 5.8 mph - N/A   Clear
9:52 AM 53.6 °F - 35.6 °F 51% 30.19 in 10.0 mi SSW 8.1 mph - N/A   Clear
10:12 AM 55.4 °F - 35.6 °F 47% 30.19 in 10.0 mi SW 10.4 mph - N/A   Clear
10:32 AM 55.4 °F - 35.6 °F 47% 30.19 in 10.0 mi SSW 9.2 mph - N/A   Clear
10:52 AM 57.2 °F - 35.6 °F 44% 30.18 in 10.0 mi SSW 6.9 mph - N/A   Clear
11:12 AM 59.0 °F - 35.6 °F 42% 30.18 in 10.0 mi SSW 6.9 mph - N/A   Clear
11:32 AM 60.8 °F - 35.6 °F 39% 30.17 in 10.0 mi SSW 6.9 mph 10.4 mph N/A   Clear
11:52 AM 60.8 °F - 35.6 °F 39% 30.17 in 10.0 mi SSW 8.1 mph - N/A   Clear
12:12 PM 62.6 °F - 35.6 °F 37% 30.17 in 10.0 mi SSW 10.4 mph - N/A   Clear
12:33 PM 62.6 °F - 33.8 °F 34% 30.16 in 10.0 mi SSW 9.2 mph - N/A   Clear
12:53 PM 64.4 °F - 35.6 °F 34% 30.15 in 10.0 mi SSW 12.7 mph - N/A   Clear
1:13 PM 64.4 °F - 33.8 °F 32% 30.14 in 10.0 mi SW 12.7 mph 16.1 mph N/A   Clear
1:33 PM 66.2 °F - 33.8 °F 30% 30.13 in 10.0 mi SSW 11.5 mph 18.4 mph N/A   Clear
1:53 PM 66.2 °F - 35.6 °F 32% 30.11 in 10.0 mi SSW 13.8 mph - N/A   Clear
2:33 PM 68.0 °F - 33.8 °F 28% 30.09 in 10.0 mi SSW 10.4 mph 17.3 mph N/A   Clear
3:14 PM 66.2 °F - 33.8 °F 30% 30.08 in 10.0 mi SSW 15.0 mph 19.6 mph N/A   Clear
3:34 PM 66.2 °F - 33.8 °F 30% 30.08 in 10.0 mi SSW 15.0 mph - N/A   Clear
3:54 PM 66.2 °F - 33.8 °F 30% 30.07 in 10.0 mi SSW 12.7 mph 16.1 mph N/A   Clear
4:14 PM 66.2 °F - 33.8 °F 30% 30.07 in 10.0 mi SSW 13.8 mph 20.7 mph N/A   Clear
4:34 PM 66.2 °F - 35.6 °F 32% 30.06 in 10.0 mi SSW 11.5 mph 16.1 mph N/A   Clear
4:55 PM 64.4 °F - 33.8 °F 32% 30.06 in 10.0 mi SSW 12.7 mph 18.4 mph N/A   Clear
5:15 PM 64.4 °F - 35.6 °F 34% 30.05 in 10.0 mi SSW 13.8 mph 20.7 mph N/A   Clear
5:35 PM 62.6 °F - 35.6 °F 37% 30.05 in 10.0 mi SSW 12.7 mph - N/A   Clear
5:55 PM 62.6 °F - 35.6 °F 37% 30.05 in 10.0 mi SSW 8.1 mph - N/A   Clear
6:15 PM 60.8 °F - 37.4 °F 42% 30.05 in 10.0 mi South 6.9 mph - N/A   Clear
6:30 PM 62.6 °F - 37.4 °F 39% 30.05 in 10.0 mi South 10.4 mph - N/A   Clear
6:50 PM 60.8 °F - 37.4 °F 42% 30.04 in 10.0 mi South 9.2 mph - N/A   Clear
7:11 PM 60.8 °F - 37.4 °F 42% 30.04 in 10.0 mi South 5.8 mph - N/A   Clear
7:31 PM 60.8 °F - 37.4 °F 42% 30.04 in 10.0 mi South 9.2 mph - N/A   Clear
7:51 PM 60.8 °F - 37.4 °F 42% 30.04 in 10.0 mi South 10.4 mph - N/A   Clear
8:31 PM 57.2 °F - 37.4 °F 48% 30.05 in 10.0 mi South 5.8 mph - N/A   Clear
8:52 PM 57.2 °F - 37.4 °F 48% 30.04 in 10.0 mi SSW 6.9 mph - N/A   Clear
9:12 PM 57.2 °F - 37.4 °F 48% 30.04 in 10.0 mi South 8.1 mph - N/A   Clear
9:32 PM 57.2 °F - 37.4 °F 48% 30.04 in 10.0 mi SSW 9.2 mph - N/A   Clear
9:52 PM 57.2 °F - 37.4 °F 48% 30.03 in 10.0 mi South 10.4 mph - N/A   Clear
10:12 PM 57.2 °F - 37.4 °F 48% 30.02 in 10.0 mi South 12.7 mph - N/A   Clear
10:32 PM 57.2 °F - 37.4 °F 48% 30.02 in 10.0 mi SSW 9.2 mph 16.1 mph N/A   Clear
10:53 PM 55.4 °F - 37.4 °F 51% 30.02 in 10.0 mi South 10.4 mph - N/A   Clear
11:13 PM 55.4 °F - 37.4 °F 51% 30.02 in 10.0 mi SSW 9.2 mph - N/A   Clear
11:33 PM 55.4 °F - 39.2 °F 54% 30.01 in 10.0 mi SSW 5.8 mph - N/A   Clear
11:53 PM 55.4 °F - 39.2 °F 54% 30.01 in 10.0 mi South 5.8 mph - N/A   Clear